Time,TemperatureF,DewpointF,PressureIn,WindDirection,WindDirectionDegrees,WindSpeedMPH,WindSpeedGustMPH,Humidity,HourlyPrecipIn,Conditions,Clouds,dailyrainin,SoftwareType,DateUTC
2013-06-30 03:30:00,66.0,60.0,29.52,North,0,0.0,0.0,81,0.00,,---,0.00,VWS V13.01,2013-06-30 07:30:00,
2013-06-30 04:00:00,65.7,60.1,29.52,North,0,0.0,0.0,82,0.00,,---,0.00,VWS V13.01,2013-06-30 08:00:00,
2013-06-30 04:30:00,65.4,60.5,29.51,North,0,0.0,0.0,84,0.00,,---,0.00,VWS V13.01,2013-06-30 08:30:00,
2013-06-30 05:00:00,65.1,60.5,29.53,North,0,0.0,0.0,85,0.00,,---,0.00,VWS V13.01,2013-06-30 09:00:00,
2013-06-30 05:30:00,65.0,60.7,29.53,North,0,0.0,0.0,86,0.00,,---,0.00,VWS V13.01,2013-06-30 09:30:00,
2013-06-30 06:00:00,64.6,61.0,29.52,North,0,0.0,0.0,88,0.00,,---,0.00,VWS V13.01,2013-06-30 10:00:00,
2013-06-30 06:30:00,64.3,61.0,29.53,North,0,0.0,0.0,89,0.00,,---,0.00,VWS V13.01,2013-06-30 10:30:00,
2013-06-30 07:00:00,64.5,61.5,29.54,North,0,0.0,0.0,90,0.00,,---,0.00,VWS V13.01,2013-06-30 11:00:00,
2013-06-30 07:30:00,64.7,61.4,29.56,North,0,0.0,0.0,89,0.00,,---,0.00,VWS V13.01,2013-06-30 11:30:00,
2013-06-30 08:00:00,66.3,61.7,29.57,NNE,31,0.0,2.0,85,0.00,,---,0.00,VWS V13.01,2013-06-30 12:00:00,
2013-06-30 08:30:00,67.6,61.9,29.57,NNE,33,0.0,2.0,82,0.00,,---,0.00,VWS V13.01,2013-06-30 12:30:00,
2013-06-30 09:00:00,68.2,61.8,29.56,WNW,300,0.0,6.0,80,0.00,,---,0.00,VWS V13.01,2013-06-30 13:00:00,
2013-06-30 09:30:00,69.1,62.0,29.59,NNE,18,0.0,1.0,78,0.00,,---,0.00,VWS V13.01,2013-06-30 13:30:00,
2013-06-30 10:00:00,70.8,62.9,29.59,North,1,0.0,0.0,76,0.00,,---,0.00,VWS V13.01,2013-06-30 14:00:00,
2013-06-30 10:30:00,71.7,63.7,29.61,North,351,0.0,0.0,76,0.00,,---,0.00,VWS V13.01,2013-06-30 14:30:00,
2013-06-30 11:00:00,71.9,64.3,29.63,North,8,0.0,2.0,77,0.00,,---,0.00,VWS V13.01,2013-06-30 15:00:00,
2013-06-30 11:30:00,72.4,64.4,29.60,North,0,0.0,2.0,76,0.00,,---,0.00,VWS V13.01,2013-06-30 15:30:00,
2013-06-30 12:00:00,75.5,64.6,29.62,North,0,0.0,7.0,69,0.00,,---,0.00,VWS V13.01,2013-06-30 16:00:00,
2013-06-30 12:30:00,75.8,66.1,29.61,North,1,0.0,1.0,72,0.00,,---,0.00,VWS V13.01,2013-06-30 16:30:00,
2013-06-30 13:00:00,75.4,64.5,29.62,NNE,32,0.0,9.0,69,0.00,,---,0.00,VWS V13.01,2013-06-30 17:00:00,
2013-06-30 15:30:00,80.5,62.9,29.59,North,4,0.0,5.0,55,0.00,,---,0.00,VWS V13.01,2013-06-30 19:30:00,
2013-06-30 16:00:00,77.4,62.4,29.60,North,0,0.0,10.0,60,0.00,,---,0.00,VWS V13.01,2013-06-30 20:00:00,
2013-06-30 16:30:00,78.4,63.8,29.60,North,9,0.0,9.0,61,0.00,,---,0.00,VWS V13.01,2013-06-30 20:30:00,
2013-06-30 17:00:00,79.5,63.0,29.63,North,11,0.0,11.0,57,0.00,,---,0.00,VWS V13.01,2013-06-30 21:00:00,
2013-06-30 17:30:00,79.8,61.2,29.62,NNE,18,4.0,10.0,53,0.00,,---,0.00,VWS V13.01,2013-06-30 21:30:00,
2013-06-30 18:00:00,80.1,61.4,29.63,NE,47,0.0,9.0,53,0.00,,---,0.00,VWS V13.01,2013-06-30 22:00:00,
2013-06-30 18:30:00,79.6,61.5,29.61,NNE,33,0.0,7.0,54,0.00,,---,0.00,VWS V13.01,2013-06-30 22:30:00,
2013-06-30 19:00:00,79.1,60.0,29.62,North,2,0.0,9.0,52,0.00,,---,0.00,VWS V13.01,2013-06-30 23:00:00,
2013-06-30 19:30:00,78.1,60.6,29.63,North,0,0.0,5.0,55,0.00,,---,0.00,VWS V13.01,2013-06-30 23:30:00,
2013-06-30 20:00:00,77.2,61.3,29.64,NNW,348,0.0,7.0,58,0.00,,---,0.00,VWS V13.01,2013-07-01 00:00:00,
2013-06-30 20:30:00,77.0,61.1,29.65,North,359,0.0,8.0,58,0.00,,---,0.00,VWS V13.01,2013-07-01 00:30:00,
2013-06-30 21:00:00,75.2,60.4,29.67,NNE,12,0.0,8.0,60,0.00,,---,0.00,VWS V13.01,2013-07-01 01:00:00,
2013-06-30 21:30:00,73.6,60.7,29.66,ENE,58,0.0,6.0,64,0.00,,---,0.00,VWS V13.01,2013-07-01 01:30:00,
2013-06-30 22:00:00,72.2,58.9,29.70,NNE,26,0.0,0.0,63,0.00,,---,0.00,VWS V13.01,2013-07-01 02:00:00,
2013-06-30 22:30:00,70.8,54.3,29.70,ESE,106,0.0,5.0,56,0.00,,---,0.00,VWS V13.01,2013-07-01 02:30:00,
2013-06-30 23:00:00,69.7,53.8,29.71,North,359,0.0,4.0,57,0.00,,---,0.00,VWS V13.01,2013-07-01 03:00:00,
2013-06-30 23:30:00,68.3,52.0,29.72,NNE,24,0.0,1.0,56,0.00,,---,0.00,VWS V13.01,2013-07-01 03:30:00,